User: anonymous
Location: Unspecified
(0.0000°N, 0.0000°E)
Time: 14:02:05
(UTC+00:00)
Language:

IBEX - Orbit

View from above orbital plane
View from above orbital plane
View from above satellite
View from above satellite

Ground track
Ground track

The orbit data is extracted from the following two-line orbital elements,

1 33401U 08051A   14238.38149506 -.00002588  00000-0  00000+0 0  1073
2 33401 004.5084 201.0964 6139742 297.5131 359.2591 00.11439614  2517
Epoch (UTC): 26 August 2014 09:09:21
Eccentricity: 0.6139742
inclination: 4.5084°
perigee height: 62816 km
apogee height: 282924 km
right ascension of ascending node: 201.0964°
argument of perigee: 297.5131°
revolutions per day: 0.11439614
mean anomaly at epoch: 359.2591°
orbit number at epoch: 251

The dashed part of the orbit path shows where the satellite is in the earth's shadow,  

DLR